Regional Weather Roundup
Issued by NWS Huntsville, AL

Home | Current Version | Previous Version | Text Only | Print | Product List | Glossary On
Versions: 1 2 3 4 5 6 7 8 9 10 11 12 13 14 15 16 17 18 19 20 21 22 23 24 25 26 27 28 29 30 31 32 33 34 35 36 37 38 39 40 41 42 43 44 45 46 47 48 49 50
000
ASUS44 KHUN 171610
RWRHUN

WEATHER ROUNDUP FOR THE TENNESSEE VALLEY
NATIONAL WEATHER SERVICE HUNTSVILLE AL
1100 AM CDT WED SEP 17 2014

ALZ001>004-171700-
NORTHWEST ALABAMA

CITY           SKY/WX    TMP DP  RH WIND       PRES   REMARKS
COURTLAND HCN    N/A     72 N/A N/A NW6         N/A
RUSSELLVILLE     N/A     73 N/A N/A MISG        N/A
SHOALS AIRPORT SUNNY     75  58  55 VRB5      30.03S
SHOALS TVA RES   N/A     73 N/A N/A MISG        N/A
$$

ALZ005>007-016-171700-
NORTH CENTRAL ALABAMA

CITY           SKY/WX    TMP DP  RH WIND       PRES   REMARKS
CULLMAN AG STN   N/A     73 N/A N/A NE3         N/A
DECATUR AP     SUNNY     75  55  49 N6        30.02R
HUNTSVILLE AP  MOSUNNY   77  56  48 N7        30.01S
HUN NWS/UAH      N/A     74  53  47 N3          N/A
REDSTONE ARSN  SUNNY     75  57  53 N3        30.02S
VINEMONT AP    FAIR      73  61  66 NW3       30.04R
$$

ALZ008>010-171700-
NORTHEAST ALABAMA

CITY           SKY/WX    TMP DP  RH WIND       PRES   REMARKS
ALBERTVILLE    MOSUNNY   73  64  73 W6        30.00S
FORT PAYNE     MOSUNNY   73  55  53 NW9       29.99R
SCOTTSBORO AP  PTSUNNY   73  59  60 NW6       30.00S
SCOTTSBORO HCN   N/A     72 N/A N/A MISG        N/A
VALLEY HEAD      N/A     72 N/A N/A MISG        N/A
$$

TNZ076-096-097-171700-
SOUTHEASTERN MIDDLE TENNESSEE

CITY           SKY/WX    TMP DP  RH WIND       PRES   REMARKS
FAYETTEVILLE   MOSUNNY   68  55  64 N6        30.03R
TULLAHOMA      MOSUNNY   66  55  68 VRB3      30.04S
WINCHESTER     MOSUNNY   68  57  68 N5        30.03S
$$

...SURROUNDING SITES...

CITY           SKY/WX    TMP DP  RH WIND       PRES   REMARKS
ATLANTA        MOSUNNY   79  62  56 W9        29.97F
ANNISTON       SUNNY     79  66  64 SW6       29.98S
BIRMINGHAM     MOSUNNY   79  63  57 VRB5      30.01F
CHATTANOOGA    PTSUNNY   73  56  54 NE5       30.00R
CORINTH        FAIR      73  55  53 N7        30.02F
DALTON         MOSUNNY   72  61  68 N3        29.98F
GADSDEN        PTSUNNY   75  61  60 CALM      29.99S
GOLDEN TRNGL   NOT AVBL
HALEYVILLE     FAIR      73  61  66 CALM      30.06R
JACKSON TN     CLOUDY    68  56  65 E3        30.04S
LEWISBURG      CLOUDY    58  56  93 CALM      30.05R
MEMPHIS        CLOUDY    71  57  61 E6        30.04R
MURFREESBORO   FAIR      65  57  75 CALM      30.04
NASHVILLE      CLOUDY    64  57  78 N5        30.06S
OXFORD MS      FAIR      73  61  64 SE5       30.04F
ROME           MOSUNNY   78  62  57 VRB5      29.97F
SAVANNAH       SUNNY     70  59  68 VRB6      30.04S
TUPELO         MOSUNNY   75  60  59 VRB3      30.02S
TUSCALOOSA     SUNNY     82  64  54 N7        29.99S
$$

...GULF COAST WEATHER...

CITY           SKY/WX    TMP DP  RH WIND       PRES   REMARKS
GULFPORT       PTSUNNY   82  73  74 N5        29.97S
PASCAGOULA     MOSUNNY   84  73  69 VRB3      29.97S HX  90
MOBILE         MOSUNNY   84  72  67 VRB3      29.98S
PENSACOLA      MOSUNNY   85  73  67 E7        29.95F HX  91
DESTIN         SUNNY     83  74  74 VRB3      29.96F
PANAMA CITY    MOSUNNY   82  76  83 N6        29.95F
APPALACHICOLA  PTSUNNY   86  71  60 E5        29.95S HX  91
$$




USA.gov is the U.S. government's official web portal to all federal, state and local government web resources and services.